Back to catalog

COSMOS 1317 DEB

LostHEO
NORAD 35513·DEBRIS·🇷🇺 Russia

Launched Oct 31, 1981 from Plesetsk Cosmodrome

Loading…

Next Passes (next 24 hours)

TLE

StaleSource: Space-Track

Epoch: Jun 12, 2012, 16:13 UTC

1 35513U 81108N   12164.67622593 -.00000471  00000-0  00000+0 0  9991
2 35513  70.8080 276.8268 5177875 116.6326  10.2780  2.02000952 42437

Track COSMOS 1317 DEB in real time with AllMySat

Download on the App Store